Location: Unspecified
(41.1637°N, 24.2901°E)
Time: 12:02:16
(UTC+02:00)

ISS - Pass Details

Date: 15 May 2026
Orbit: 414 x 424 km, 51.6° (Epoch: 12 May)

Event Time Altitude Azimuth Distance (km) Brightness Sun altitude
Rises 21:47:44 0° 304° (NW) 2,353 1.4 -20.3°
Reaches altitude 10° 21:50:37 10° 331° (NNW) 1,490 0.2 -20.7°
Maximum altitude 21:52:28 14° 5° (N) 1,270 -0.7 -20.9°
Drops below altitude 10° 21:54:20 10° 39° (NE) 1,491 -0.8 -21.1°
Enters shadow 21:55:19 - 51° (NE) 1,743 -0.6 -21.2°
